SES-2

Last updated on Tue Sep 22 2026 00:03:12 GMT+0000 (Coordinated Universal Time)

1 37809U 11049A 26264.40476100 -.00000200 00000+0 00000+0 0 9995 2 37809 0.2981 87.2431 0002918 89.1721 242.6007 1.00272120 54928
UTC large
Height (km)
Speed (km/s)
/
Latitude / Longitude
Inclination (degrees)
Orbital Period (minutes)
Azimuth
Elevation
Range (km)
Doppler Factor

Next 0 passes for location: London (51.5072 / 0.1276)

No passes found over London.
SES-2